Starlink 30342

decayed
NORAD ID: 57705 Int'l Des: 2023-129 Owner: SPXS Country: US Constellation: starlink
LEOCIRCULAR

关于 Starlink 30342

正在加载描述...

高度历史

Altitude vs Time

uPlot chart will show altitude changes over time

两行轨道根数

1 57705U 23129H 25234.07834418 .01091976 73007-3 10496-2 0 9997
2 57705 42.9964 107.8822 0007149 237.1973 122.8221 16.10932825110828
Epoch: Aug 22, 2025 • Age: 4667 hours

当前状态

Position data unavailable
发射日期 Aug 27, 2023
运行时间 2.5 years
衰减日期 Aug 27, 2025
类型 internet

技术详情

分类 Payload
质量 730.00 kg
干质量 700.00 kg
总质量 730.00 kg
长度 0.30 m
直径 4.10 m
跨度 29.00 m
形状 Box + pan
制造商 SPXS
平台类型 Starlink V2M
阶段状态 Reentered
所有者/国家 SPXS/US

大型星座

Loading constellations...